Погода в Камень-Каширском

Украина / Волынская область     51°37′11″N   24°57′54″E
темп.,
°C
ветер,
м/с
пор.,
м/с
влажн.,
%
обл.,
%
осадки,
мм/ч
давл.,
гПа
погр.,
м
29 июня, ср
ср2900:00+21в127199 0.0 101813
03:00+20ю226976 0.0 101820
06:00+20ю2272100 0.0 101840
09:00+26ююв345416 0.0 1017349
12:00+31ююз33365 0.0 10161995
15:00+32ююз323125 0.0 10152865
18:00+32зюз433414 0.0 10142253
21:00+23всв377367 0.4 1015164
30 июня, чт
чт3000:00+19ююв25936 1.3 101696
03:00+18вюв22955 1.3 101646
06:00+18всв119111 0.0 101622
09:00+23в346981 0.0 1016417
12:00+29всв33445 0.0 10161206
15:00+32всв33368 0.0 10152146
18:00+30всв4443100 0.0 10151414
21:00+24всв366851 0.0 1016147
1 июля, пт
пт100:00+22вюв4117034 0.0 1017351
03:00+20юв3118145 0.0 1018327
06:00+19вюв398788 0.0 1018242
09:00+24вюв476271 0.0 1019644
12:00+29юв56425 0.0 10181623
15:00+30юв56352 0.0 10182085
18:00+29юв56345 0.0 10171786
21:00+23ююв310535 0.0 1018379
2 июля, сб
сб200:00+20вюв412624 0.0 1019294
03:00+18юв413665 0.0 1019320
06:00+18вюв412665 0.0 1019292
09:00+24ююв59455 0.0 1019566
12:00+29ю46395 0.0 10191105
15:00+31ю45395 0.0 10191940
18:00+24зсз5107959 0.6 1019400
21:00+19зсз489697 4.5 1021453
3 июля, вс
вс300:00+18сз3798100 1.9 1022502
03:00+17сз3697100 4.1 1022440
06:00+16зсз3698100 0.2 1022348
09:00+18ссз358228 0.2 1022540
12:00+23сз345223 0.0 10211247
15:00+26ссз33432 0.0 10201685
18:00+26ссз33427 0.0 10191890
21:00+20св24710 0.0 101980